| time (UTC) | temp F | wind direction | speed MPH | gust MPH | rain 1hr in | rain 24hr in | rain mn in | humidity % | barometer mb |
| 20260902011631 | 82 | 279 | 2.0 | 3.0 | 0.00 | 0.00 | 0.00 | 42 | 1012.9 |
| 20260902010126 | 79 | 232 | 4.0 | 5.0 | 0.00 | 0.00 | 0.00 | 42 | 1013.1 |
| 20260902004625 | 81 | 269 | 5.0 | 7.0 | 0.00 | 0.00 | 0.00 | 42 | 1013.4 |
| 20260902003123 | 80 | 303 | 2.0 | 2.0 | 0.00 | 0.00 | 0.00 | 43 | 1013.4 |
| 20260902001619 | 79 | 230 | 3.0 | 5.0 | 0.00 | 0.00 | 0.00 | 45 | 1013.5 |
| 20260902000116 | 79 | 246 | 2.0 | 2.0 | 0.00 | 0.00 | 0.00 | 44 | 1013.7 |
| 20260901234616 | 78 | 264 | 5.0 | 9.0 | 0.00 | 0.00 | 0.00 | 46 | 1014.2 |
| 20260901233114 | 77 | 194 | 5.0 | 9.0 | 0.00 | 0.00 | 0.00 | 47 | 1014.0 |
| 20260901231612 | 76 | 225 | 5.0 | 8.0 | 0.00 | 0.00 | 0.00 | 46 | 1014.5 |
| 20260901230109 | 75 | 210 | 4.0 | 5.0 | 0.00 | 0.00 | 0.00 | 48 | 1014.6 |
| 20260901224606 | 75 | 267 | 2.0 | 3.0 | 0.00 | 0.00 | 0.00 | 49 | 1014.7 |
| 20260901223104 | 75 | 238 | 2.0 | 2.0 | 0.00 | 0.00 | 0.00 | 50 | 1014.9 |
| 20260901221603 | 73 | 141 | 3.0 | 3.0 | 0.00 | 0.00 | 0.00 | 51 | 1014.7 |
| 20260901214600 | 66 | 287 | 0.0 | 0.0 | 0.00 | 0.00 | 0.00 | 64 | 1014.4 |
| 20260901213055 | 69 | 290 | 0.0 | 0.0 | 0.00 | 0.00 | 0.00 | 58 | 1014.2 |
| 20260901211552 | 64 | 261 | 1.0 | 2.0 | 0.00 | 0.00 | 0.00 | 63 | 1014.2 |
| 20260901210052 | 64 | 300 | 0.0 | 0.0 | 0.00 | 0.00 | 0.00 | 65 | 1014.3 |
| 20260901204549 | 64 | 291 | 0.0 | 0.0 | 0.00 | 0.00 | 0.00 | 63 | 1014.1 |
| 20260901203045 | 63 | 284 | 0.0 | 0.0 | 0.00 | 0.00 | 0.00 | 63 | 1014.4 |
| 20260901201542 | 65 | 253 | 1.0 | 2.0 | 0.00 | 0.00 | 0.00 | 59 | 1014.2 |
| 20260901200041 | 67 | 289 | 1.0 | 1.0 | 0.00 | 0.00 | 0.00 | 56 | 1014.2 |
| 20260901194540 | 65 | 245 | 1.0 | 2.0 | 0.00 | 0.00 | 0.00 | 59 | 1014.3 |
| 20260901193037 | 65 | 262 | 1.0 | 2.0 | 0.00 | 0.00 | 0.00 | 61 | 1014.3 |
| 20260901191535 | 64 | 322 | 1.0 | 1.0 | 0.00 | 0.00 | 0.00 | 63 | 1014.0 |
| 20260901190031 | 65 | 296 | 0.0 | 1.0 | 0.00 | 0.00 | 0.00 | 61 | 1014.4 |
| 20260901184531 | 65 | 192 | 3.0 | 5.0 | 0.00 | 0.00 | 0.00 | 60 | 1014.6 |
| 20260901183028 | 67 | 216 | 2.0 | 2.0 | 0.00 | 0.00 | 0.00 | 57 | 1014.2 |
| 20260901181523 | 68 | 231 | 3.0 | 5.0 | 0.00 | 0.00 | 0.00 | 55 | 1013.9 |
| 20260901180022 | 70 | 196 | 5.0 | 6.0 | 0.00 | 0.00 | 0.00 | 49 | 1014.2 |
| 20260901174518 | 67 | 266 | 3.0 | 5.0 | 0.00 | 0.00 | 0.00 | 52 | 1013.6 |
| 20260901173016 | 66 | 302 | 1.0 | 1.0 | 0.00 | 0.00 | 0.00 | 55 | 1013.4 |
| 20260901171514 | 65 | 273 | 1.0 | 1.0 | 0.00 | 0.00 | 0.00 | 60 | 1013.2 |
| 20260901170014 | 68 | 194 | 3.0 | 3.0 | 0.00 | 0.00 | 0.00 | 51 | 1013.2 |
| 20260901164511 | 66 | 218 | 1.0 | 2.0 | 0.00 | 0.00 | 0.00 | 54 | 1013.3 |
| 20260901163006 | 65 | 269 | 1.0 | 1.0 | 0.00 | 0.00 | 0.00 | 57 | 1013.4 |
| 20260901161506 | 66 | 265 | 1.0 | 1.0 | 0.00 | 0.00 | 0.00 | 54 | 1013.9 |
| 20260901160001 | 68 | 322 | 2.0 | 2.0 | 0.00 | 0.00 | 0.00 | 51 | 1014.0 |
| 20260901154457 | 66 | 279 | 1.0 | 1.0 | 0.00 | 0.00 | 0.00 | 53 | 1014.0 |
| 20260901152952 | 66 | 302 | 1.0 | 2.0 | 0.00 | 0.00 | 0.00 | 56 | 1014.2 |
| 20260901151447 | 64 | 181 | 3.0 | 3.0 | 0.00 | 0.00 | 0.00 | 61 | 1014.4 |
| 20260901145942 | 62 | 300 | 0.0 | 0.0 | 0.00 | 0.00 | 0.00 | 64 | 1014.8 |
| 20260901144438 | 65 | 292 | 3.0 | 3.0 | 0.00 | 0.00 | 0.00 | 57 | 1014.8 |
| 20260901142937 | 67 | 228 | 3.0 | 3.0 | 0.00 | 0.00 | 0.00 | 56 | 1015.1 |
| 20260901141433 | 68 | 276 | 1.0 | 1.0 | 0.00 | 0.00 | 0.00 | 54 | 1015.1 |
| 20260901135932 | 66 | 211 | 5.0 | 7.0 | 0.00 | 0.00 | 0.00 | 54 | 1015.1 |
| 20260901134430 | 66 | 234 | 2.0 | 2.0 | 0.00 | 0.00 | 0.00 | 59 | 1015.1 |
| 20260901132927 | 65 | 231 | 3.0 | 3.0 | 0.00 | 0.00 | 0.00 | 60 | 1015.5 |
| 20260901131427 | 66 | 288 | 0.0 | 1.0 | 0.00 | 0.00 | 0.00 | 58 | 1015.3 |
| 20260901125926 | 69 | 208 | 3.0 | 3.0 | 0.00 | 0.00 | 0.00 | 52 | 1015.6 |
| 20260901124422 | 67 | 292 | 0.0 | 0.0 | 0.00 | 0.00 | 0.00 | 56 | 1015.4 |
| 20260901122921 | 68 | 295 | 0.0 | 1.0 | 0.00 | 0.00 | 0.00 | 55 | 1015.8 |
| 20260901121417 | 65 | 295 | 1.0 | 1.0 | 0.00 | 0.00 | 0.00 | 59 | 1015.8 |
| 20260901115912 | 65 | 320 | 1.0 | 1.0 | 0.00 | 0.01 | 0.01 | 60 | 1015.8 |
| 20260901114411 | 65 | 307 | 1.0 | 1.0 | 0.00 | 0.01 | 0.01 | 61 | 1016.4 |
| 20260901112910 | 64 | 273 | 1.0 | 1.0 | 0.00 | 0.01 | 0.01 | 61 | 1016.6 |
| 20260901111409 | 65 | 294 | 1.0 | 1.0 | 0.00 | 0.01 | 0.01 | 59 | 1016.4 |
| 20260901105906 | 64 | 296 | 0.0 | 0.0 | 0.00 | 0.01 | 0.01 | 60 | 1016.2 |
| 20260901104404 | 66 | 283 | 1.0 | 1.0 | 0.00 | 0.01 | 0.01 | 56 | 1016.5 |
| 20260901102900 | 68 | 279 | 2.0 | 2.0 | 0.00 | 0.01 | 0.01 | 54 | 1016.9 |
| 20260901101356 | 65 | 286 | 1.0 | 1.0 | 0.00 | 0.01 | 0.01 | 57 | 1017.0 |
| 20260901095856 | 65 | 277 | 2.0 | 2.0 | 0.00 | 0.01 | 0.01 | 57 | 1017.3 |
| 20260901094354 | 64 | 278 | 1.0 | 1.0 | 0.00 | 0.01 | 0.01 | 58 | 1017.2 |
| 20260901092850 | 67 | 302 | 0.0 | 0.0 | 0.00 | 0.01 | 0.01 | 54 | 1017.3 |
| 20260901091347 | 67 | 298 | 2.0 | 3.0 | 0.00 | 0.01 | 0.01 | 53 | 1017.3 |
| 20260901085844 | 68 | 296 | 1.0 | 2.0 | 0.00 | 0.01 | 0.01 | 50 | 1017.3 |
| 20260901084343 | 70 | 213 | 2.0 | 2.0 | 0.00 | 0.01 | 0.01 | 47 | 1017.0 |
| 20260901082842 | 70 | 206 | 4.0 | 6.0 | 0.00 | 0.01 | 0.01 | 45 | 1017.0 |
| 20260901081339 | 68 | 287 | 0.0 | 0.0 | 0.00 | 0.01 | 0.01 | 50 | 1017.2 |
| 20260901075839 | 70 | 291 | 2.0 | 2.0 | 0.00 | 0.01 | 0.01 | 46 | 1017.1 |
| 20260901074336 | 71 | 246 | 1.0 | 2.0 | 0.00 | 0.01 | 0.01 | 45 | 1017.0 |
| 20260901072834 | 72 | 232 | 1.0 | 2.0 | 0.00 | 0.01 | 0.01 | 44 | 1017.0 |
| 20260901071333 | 74 | 280 | 2.0 | 3.0 | 0.00 | 0.01 | 0.01 | 40 | 1017.1 |
| 20260901065833 | 76 | 294 | 1.0 | 1.0 | 0.00 | 0.01 | 0.01 | 40 | 1017.0 |
| 20260901064331 | 77 | 213 | 2.0 | 3.0 | 0.00 | 0.01 | 0.01 | 38 | 1016.8 |
| 20260901062831 | 79 | 234 | 2.0 | 3.0 | 0.00 | 0.01 | 0.01 | 36 | 1016.5 |
| 20260901061330 | 80 | 299 | 0.0 | 1.0 | 0.00 | 0.01 | 0.01 | 35 | 1016.7 |
| 20260901055826 | 80 | 285 | 1.0 | 2.0 | 0.00 | 0.01 | 0.01 | 34 | 1016.7 |
| 20260901054322 | 80 | 187 | 3.0 | 5.0 | 0.00 | 0.01 | 0.01 | 33 | 1016.9 |
| 20260901052820 | 81 | 198 | 4.0 | 7.0 | 0.00 | 0.01 | 0.01 | 33 | 1017.1 |
| 20260901051316 | 81 | 141 | 3.0 | 5.0 | 0.00 | 0.01 | 0.01 | 33 | 1016.8 |
| 20260901045813 | 81 | 236 | 2.0 | 2.0 | 0.00 | 0.01 | 0.01 | 33 | 1017.3 |
| 20260901044310 | 81 | 244 | 5.0 | 7.0 | 0.00 | 0.01 | 0.01 | 32 | 1017.2 |
| 20260901042806 | 83 | 298 | 2.0 | 2.0 | 0.00 | 0.01 | 0.01 | 32 | 1017.2 |
| 20260901041303 | 82 | 309 | 4.0 | 6.0 | 0.00 | 0.01 | 0.01 | 30 | 1017.4 |
| 20260901035802 | 83 | 254 | 3.0 | 5.0 | 0.00 | 0.01 | 0.01 | 32 | 1017.3 |
| 20260901034301 | 82 | 214 | 4.0 | 6.0 | 0.00 | 0.01 | 0.01 | 31 | 1017.6 |
| 20260901032759 | 82 | 219 | 6.0 | 8.0 | 0.00 | 0.01 | 0.01 | 31 | 1018.1 |
| 20260901031256 | 82 | 195 | 3.0 | 5.0 | 0.00 | 0.01 | 0.01 | 32 | 1018.2 |
| 20260901025756 | 82 | 276 | 6.0 | 7.0 | 0.00 | 0.01 | 0.01 | 30 | 1018.6 |
| 20260901024256 | 83 | 347 | 5.0 | 8.0 | 0.00 | 0.01 | 0.01 | 30 | 1018.8 |
| 20260901022751 | 82 | 319 | 4.0 | 8.0 | 0.00 | 0.01 | 0.01 | 31 | 1019.3 |
| 20260901021249 | 82 | 271 | 2.0 | 3.0 | 0.00 | 0.01 | 0.01 | 33 | 1019.5 |
| 20260901015746 | 81 | 304 | 0.0 | 1.0 | 0.00 | 0.01 | 0.01 | 34 | 1020.3 |
| 20260901014243 | 80 | 311 | 1.0 | 1.0 | 0.00 | 0.01 | 0.01 | 36 | 1020.4 |
| 20260901012741 | 80 | 237 | 1.0 | 2.0 | 0.00 | 0.01 | 0.01 | 36 | 1020.7 |